SL-8 DEB, 1335

Orbit data source: Space-Track

SL-8 DEB, 1335 is space debris in LEO originally from a launch on Mon, 15 Mar 1965 UTC launched from the Tyuratam Missile And Space Complex (TTMTR). Debris objects in space refer to the collection of defunct objects orbiting the Earth. Examples of debris include non-operational satellites, rocket bodies, and fragments generated from explosions, collisions, or faulty payload assembly.

Loading next visibility...
Identifier
1335, 1965-020E
Orbit
LEO
Last TLE update
13 hours ago
Origin
Manufacturer
Unknown
Mission
Spacecraft
Bus & Motor
Unknown
Mass
Unknown
Launch date (UTC)
1965-03-15 (60 years ago)
Launch vehicle
Unknown
Launch site
Tyuratam Missile And Space Complex (TTMTR)
Object type
Payload
Rocket body
Debris
Shape & HBR
Unknown
Radar Cross Section
Medium (>0.1 m² and <1 m²)

Expand to show TLE details & history

TLE from 13 hours ago
0 SL-8 DEB
1 01335U 65020E   25189.76601386  .00000233  00000-0  11781-3 0  9996
2 01335  56.0772  70.4670 0527118 274.0906  80.0008 13.86012458962345
Epoch: 2025-07-08T18:23Z
TLE epoch observation values (Epoch: 2025-07-08T18:23:03.597Z)
Latitude
-0.00006°
Longitude
-132.25432°
Altitude
896.735 km
Speed
7.428 km/s
True Right ascension
04h 41m 52s
True Declination
0° 00' 00"
Sunlit
Object was in daylight at epoch
Visualization orbit readout
Latitude
53.86734°
Longitude
-67.61182°
Altitude
1,313.133 km
Speed
7.025 km/s
Apparent Right ascension
07h 59m 16s
Apparent Declination
13° 03' 21"
Sunlit
Object is in daylight
Visualization observer readout
Local Sidereal Time
19:02:37
Azimuth
342.998° N
Elevation
-35.416°
Doppler factor
1
Orbital elements
Apogee altitude
1,328.326 km
Perigee altitude
556.564 km
Semi-major axis
7,320.582 km
Eccentricity
0.05271
Inclination
56.0772°
RAAN
70.467°
Arg. of periapsis
274.0906°
True anomaly
Unknown
Mean anomaly
80.0008°
Eccentric anomaly
Unknown
Mean motion
3.46517 °/min
Orbital period
103.89 mins
BSTAR
0.00011781
Loading maneuver chart data...
Loading SW <> Apogee altitude chart data...
Loading historical data...
Loading historical data...
Loading historical data...
Loading historical data...
Loading historical data...
Loading historical data...
Loading historical data...

SL-8 DEB Visibility forecast

Observer location: undefined°, undefined°

Span
Click to sort rows by Start time (UTC) header in descending order
Start Az.
Max El. time (UTC)
Max El. Az.
Max El.
End time (UTC)
End Az.
11 mins2025-07-09 17:00:13.502Z170.79° S2025-07-09 17:05:13.502Z118.493° SE25.936°2025-07-09 17:11:13.502Z64.517° ENE
14 mins2025-07-09 18:47:13.502Z234.539° WSW2025-07-09 18:53:13.502Z334.211° NNW43.836°2025-07-09 19:01:13.502Z43.643° NE
12 mins2025-07-09 20:37:13.502Z286.427° WNW2025-07-09 20:42:13.502Z334.261° NNW27.717°2025-07-09 20:49:13.502Z37.863° NE
12 mins2025-07-09 22:28:13.502Z317.956° NNW2025-07-09 22:33:13.502Z0.735° NNE23.396°2025-07-09 22:40:13.502Z57.976° ENE
13 mins2025-07-10 00:18:13.502Z326.577° NNW2025-07-10 00:24:13.502Z28.423° NE33.32°2025-07-10 00:31:13.502Z95.51° ESE
14 mins2025-07-10 02:06:13.502Z311.244° NW2025-07-10 02:13:13.502Z235.31° WSW43.942°2025-07-10 02:20:13.502Z146.402° SSE
7 mins2025-07-10 03:57:13.502Z274.527° WNW2025-07-10 04:00:13.502Z249.586° W16.164°2025-07-10 04:04:13.502Z214.893° SW
|